When you browse on this site, cookies collect data to enhance your experience and personalize the content and advertising you see.
Visit our Privacy Policy to learn more. By continuing to use the site, you agree to this use of cookies and data.
  • In Hungary
  • List of Countries
  • For 7 days
  • Water Temperature
  • Weather Map
  • News
  • Weather Widgets
  • user-avatar
    Login

    Hourly Weather Herāt

    Today, 3 June, Wednesday

    Time Temperature Precipitation Wind Pressure Humidity
    00:00 +26°C° 0 mm 4 mps 677 mmHg 13%
    01:00 +26°C° 0 mm 3 mps 677 mmHg 14%
    02:00 +25°C° 0 mm 3 mps 677 mmHg 15%
    03:00 +24°C° 0 mm 2 mps 676 mmHg 17%
    04:00 +23°C° 0 mm 2 mps 676 mmHg 18%
    05:00 +25°C° 0 mm 2 mps 677 mmHg 16%
    06:00 +28°C° 0 mm 3 mps 678 mmHg 14%
    07:00 +30°C° 0 mm 3 mps 678 mmHg 13%
    08:00 +33°C° 0 mm 4 mps 679 mmHg 11%
    09:00 +35°C° 0 mm 6 mps 679 mmHg 9%
    10:00 +38°C° 0 mm 7 mps 679 mmHg 8%
    11:00 +39°C° 0 mm 7 mps 679 mmHg 7%
    12:00 +39°C° 0 mm 8 mps 678 mmHg 7%
    13:00 +40°C° 0 mm 8 mps 678 mmHg 6%
    14:00 +40°C° 0 mm 8 mps 678 mmHg 7%
    15:00 +40°C° 0 mm 8 mps 678 mmHg 7%
    16:00 +40°C° 0 mm 8 mps 677 mmHg 7%
    17:00 +38°C° 0 mm 7 mps 677 mmHg 8%
    18:00 +35°C° 0 mm 6 mps 677 mmHg 9%
    19:00 +33°C° 0 mm 4 mps 677 mmHg 10%
    20:00 +32°C° 0 mm 4 mps 677 mmHg 11%
    21:00 +30°C° 0 mm 4 mps 677 mmHg 11%
    22:00 +29°C° 0 mm 4 mps 677 mmHg 11%
    23:00 +28°C° 0 mm 4 mps 677 mmHg 12%

    Tomorrow, 4 June, Thursday

    Time Temperature Precipitation Wind Pressure Humidity
    00:00 +27°C° 0 mm 3 mps 676 mmHg 13%
    01:00 +27°C° 0 mm 3 mps 676 mmHg 14%
    02:00 +26°C° 0 mm 2 mps 676 mmHg 16%
    03:00 +25°C° 0 mm 2 mps 676 mmHg 17%
    04:00 +24°C° 0 mm 1 mps 675 mmHg 18%
    05:00 +26°C° 0 mm 1 mps 676 mmHg 16%
    06:00 +29°C° 0 mm 1 mps 677 mmHg 14%
    07:00 +31°C° 0 mm 1 mps 678 mmHg 11%
    08:00 +34°C° 0 mm 3 mps 678 mmHg 10%
    09:00 +37°C° 0 mm 5 mps 678 mmHg 9%
    10:00 +40°C° 0 mm 8 mps 679 mmHg 7%
    11:00 +40°C° 0 mm 8 mps 679 mmHg 7%
    12:00 +42°C° 0 mm 9 mps 679 mmHg 7%
    13:00 +42°C° 0 mm 10 mps 678 mmHg 7%
    14:00 +42°C° 0 mm 10 mps 678 mmHg 7%
    15:00 +42°C° 0 mm 10 mps 678 mmHg 7%
    16:00 +42°C° 0 mm 10 mps 678 mmHg 7%
    17:00 +39°C° 0 mm 8 mps 678 mmHg 7%
    18:00 +36°C° 0 mm 7 mps 678 mmHg 8%
    19:00 +34°C° 0 mm 6 mps 678 mmHg 9%
    20:00 +33°C° 0 mm 5 mps 678 mmHg 9%
    21:00 +32°C° 0 mm 4 mps 678 mmHg 10%
    22:00 +29°C° 0 mm 4 mps 678 mmHg 11%
    23:00 +29°C° 0 mm 3 mps 678 mmHg 12%

    Day after tomorrow, 5 June, Friday

    Time Temperature Precipitation Wind Pressure Humidity
    00:00 +28°C° 0 mm 3 mps 677 mmHg 12%
    01:00 +28°C° 0 mm 3 mps 677 mmHg 13%
    02:00 +27°C° 0 mm 3 mps 677 mmHg 13%
    03:00 +27°C° 0 mm 3 mps 677 mmHg 14%
    04:00 +26°C° 0 mm 3 mps 677 mmHg 14%
    05:00 +28°C° 0 mm 4 mps 677 mmHg 13%
    06:00 +30°C° 0 mm 4 mps 678 mmHg 11%
    07:00 +33°C° 0 mm 5 mps 679 mmHg 10%
    08:00 +35°C° 0 mm 6 mps 679 mmHg 9%
    09:00 +38°C° 0 mm 8 mps 680 mmHg 7%
    10:00 +40°C° 0 mm 10 mps 680 mmHg 6%
    11:00 +42°C° 0 mm 10 mps 680 mmHg 6%
    12:00 +42°C° 0 mm 10 mps 680 mmHg 6%
    13:00 +43°C° 0 mm 10 mps 679 mmHg 6%
    14:00 +43°C° 0 mm 10 mps 679 mmHg 6%
    15:00 +43°C° 0 mm 10 mps 679 mmHg 6%
    16:00 +42°C° 0 mm 10 mps 678 mmHg 6%
    17:00 +40°C° 0 mm 8 mps 678 mmHg 7%
    18:00 +38°C° 0 mm 7 mps 678 mmHg 8%
    19:00 +35°C° 0 mm 6 mps 678 mmHg 8%
    20:00 +34°C° 0 mm 5 mps 678 mmHg 9%
    21:00 +32°C° 0 mm 5 mps 678 mmHg 10%
    22:00 +30°C° 0 mm 4 mps 678 mmHg 11%
    23:00 +29°C° 0 mm 4 mps 678 mmHg 11%

    6 June, Saturday

    Time Temperature Precipitation Wind Pressure Humidity
    00:00 +29°C° 0 mm 4 mps 678 mmHg 12%
    01:00 +28°C° 0 mm 4 mps 677 mmHg 12%
    02:00 +28°C° 0 mm 3 mps 677 mmHg 13%
    03:00 +27°C° 0 mm 3 mps 677 mmHg 14%
    04:00 +26°C° 0 mm 3 mps 677 mmHg 15%
    05:00 +28°C° 0 mm 3 mps 678 mmHg 14%
    06:00 +30°C° 0 mm 3 mps 679 mmHg 13%
    07:00 +33°C° 0 mm 3 mps 679 mmHg 11%
    08:00 +35°C° 0 mm 5 mps 680 mmHg 11%
    09:00 +38°C° 0 mm 8 mps 680 mmHg 10%
    10:00 +40°C° 0 mm 10 mps 680 mmHg 10%
    11:00 +42°C° 0 mm 10 mps 680 mmHg 10%
    12:00 +42°C° 0 mm 10 mps 680 mmHg 10%
    13:00 +43°C° 0 mm 11 mps 680 mmHg 10%
    14:00 +42°C° 0 mm 11 mps 679 mmHg 10%
    15:00 +42°C° 0 mm 11 mps 679 mmHg 11%
    16:00 +42°C° 0 mm 11 mps 679 mmHg 11%
    17:00 +39°C° 0 mm 10 mps 679 mmHg 14%
    18:00 +37°C° 0 mm 9 mps 678 mmHg 16%
    19:00 +35°C° 0 mm 8 mps 678 mmHg 19%
    20:00 +34°C° 0 mm 8 mps 678 mmHg 20%
    21:00 +33°C° 0 mm 8 mps 679 mmHg 21%
    22:00 +32°C° 0 mm 8 mps 679 mmHg 22%
    23:00 +29°C° 0 mm 9 mps 678 mmHg 27%

    7 June, Sunday

    Time Temperature Precipitation Wind Pressure Humidity
    00:00 +28°C° 0 mm 9 mps 678 mmHg 32%
    01:00 +27°C° 0 mm 9 mps 678 mmHg 38%
    02:00 +26°C° 0 mm 8 mps 678 mmHg 40%
    03:00 +24°C° 0 mm 7 mps 677 mmHg 43%
    04:00 +23°C° 0 mm 6 mps 677 mmHg 46%
    05:00 +24°C° 0 mm 6 mps 678 mmHg 44%
    06:00 +26°C° 0 mm 6 mps 678 mmHg 42%
    07:00 +27°C° 0 mm 7 mps 679 mmHg 40%
    08:00 +29°C° 0 mm 7 mps 679 mmHg 36%
    09:00 +30°C° 0 mm 7 mps 679 mmHg 31%
    10:00 +33°C° 0 mm 7 mps 679 mmHg 27%
    11:00 +35°C° 0 mm 7 mps 679 mmHg 24%
    12:00 +37°C° 0 mm 8 mps 679 mmHg 22%
    13:00 +39°C° 0 mm 8 mps 679 mmHg 19%
    14:00 +38°C° 0 mm 10 mps 678 mmHg 19%
    15:00 +38°C° 0 mm 11 mps 678 mmHg 19%
    16:00 +38°C° 0 mm 13 mps 677 mmHg 20%
    17:00 +36°C° 0 mm 13 mps 677 mmHg 22%
    18:00 +33°C° 0 mm 13 mps 677 mmHg 25%
    19:00 +32°C° 0 mm 13 mps 677 mmHg 28%
    20:00 +31°C° 0 mm 13 mps 677 mmHg 30%
    21:00 +29°C° 0 mm 13 mps 677 mmHg 32%
    22:00 +27°C° 0 mm 13 mps 677 mmHg 34%
    23:00 +26°C° 0 mm 11 mps 677 mmHg 37%

    8 June, Monday

    Time Temperature Precipitation Wind Pressure Humidity
    00:00 +24°C° 0 mm 9 mps 677 mmHg 40%
    01:00 +23°C° 0 mm 7 mps 676 mmHg 43%
    02:00 +22°C° 0 mm 7 mps 676 mmHg 47%
    03:00 +21°C° 0 mm 7 mps 676 mmHg 50%
    04:00 +20°C° 0 mm 7 mps 676 mmHg 54%
    05:00 +21°C° 0 mm 7 mps 676 mmHg 50%
    06:00 +23°C° 0 mm 7 mps 677 mmHg 46%
    07:00 +24°C° 0 mm 7 mps 677 mmHg 41%
    08:00 +26°C° 0 mm 7 mps 678 mmHg 38%
    09:00 +28°C° 0 mm 7 mps 678 mmHg 35%
    10:00 +29°C° 0 mm 8 mps 678 mmHg 31%
    11:00 +32°C° 0 mm 8 mps 678 mmHg 28%
    12:00 +33°C° 0 mm 8 mps 677 mmHg 25%
    13:00 +35°C° 0 mm 9 mps 677 mmHg 22%
    14:00 +34°C° 0 mm 9 mps 677 mmHg 23%
    15:00 +34°C° 0 mm 10 mps 677 mmHg 24%
    16:00 +34°C° 0 mm 11 mps 676 mmHg 24%
    17:00 +32°C° 0 mm 11 mps 676 mmHg 28%
    18:00 +29°C° 0 mm 11 mps 676 mmHg 32%
    19:00 +27°C° 0 mm 11 mps 676 mmHg 36%
    20:00 +26°C° 0 mm 10 mps 676 mmHg 38%
    21:00 +24°C° 0 mm 9 mps 677 mmHg 39%
    22:00 +23°C° 0 mm 9 mps 677 mmHg 41%
    23:00 +23°C° 0 mm 8 mps 677 mmHg 43%
    Show more